Погода в Камфе

Вьетнам     21°00′57″N   107°18′13″E
темп.,
°C
ветер,
м/с
пор.,
м/с
влажн.,
%
обл.,
%
осадки,
мм/ч
давл.,
гПа
погр.,
м
2 июля, сб
сб201:00+26сз2285100 1.3 99864
04:00+26сз2385100 0.1 99685
07:00+27сз248270 0.2 997168
10:00+31ссз5963100 0.0 9961011
13:00+34ссз4955100 0.0 9941682
16:00+29ссв1176100 0.3 99424
19:00+26зсз2390100 2.3 99585
22:00+26зюз3593100 1.4 996144
3 июля, вс
вс301:00+26юз3394100 5.1 996140
04:00+26ююз359498 1.9 995327
07:00+26зюз2392100 2.2 996247
10:00+28ююз3485100 0.5 998645
13:00+27вюв2293100 4.6 997111
16:00+28юв1386100 0.2 996354
19:00+27ю2291100 0.5 997133
22:00+27ююз2391100 3.2 998127
4 июля, пн
пн401:00+27юз2391100 3.6 997157
04:00+27юз3591100 1.4 996270
07:00+27сз2290100 1.5 997155
10:00+28сз0186100 0.0 997171
13:00+30з2376100 0.0 997383
16:00+30ююз2381100 0.0 996205
19:00+28юз2390100 0.0 997108
22:00+28юз1190100 0.0 99953
5 июля, вт
вт501:00+27зюз1190100 0.3 99845
04:00+27з1186100 0.0 99834
07:00+28ююв0286100 1.1 999101
10:00+31ююз1174100 0.9 1000583
13:00+29в1184100 2.8 998187
16:00+29юв1182100 0.1 998271
19:00+28вюв1188100 0.1 99941
22:00+28всв1190100 0.1 100123
6 июля, ср
ср601:00+26с1192100 2.4 100032
04:00+26зсз2292100 4.6 99963
07:00+27ссв1187100 4.6 100140
10:00+28в2287100 0.1 1001105
13:00+31юв2170100 0.1 1000697
16:00+28вюв1288100 0.6 99974
19:00+28вюв1189100 0.8 99942
22:00+27всв1190100 0.3 100141